Date String (YYYY-MM-DD hh:mm:ss) UTC,Instrument flags,Ambient pressure (hPa),Sample flow (lpm),Bypass flow (lpm),Sample temperature (°C),Ambient temperature (°C),ASC tube jacket temperature (°C),LED temperature (°C),Box temperature (°C),Sample RH (%),Span deviation,Mass concentration (μg/m³),Mass concentration (μg/m³),Mass concentration (μg/m³)
DateTimeUTC,F1_M11,P_M11,Q1_M11,Q2_M11,T1_M11,T2_M11,T3_M11,T4_M11,T5_M11,U1_M11,ZSPAN_M11,X0_M11,X2_M11,X1_M11
2022-05-30 15:00:00,,0813.2,5.00,0.00,25.6,24.3,00.0,34.5,27.5,11.7,0000.0,0001.42,0000.71,0000.35
2022-05-30 15:01:00,,0813.2,4.99,0.00,25.6,24.3,00.0,34.5,27.4,12.3,0000.0,0001.32,0000.68,0000.36
2022-05-30 15:02:00,,0813.2,5.00,0.00,25.6,24.3,00.0,34.5,27.4,12.5,0000.0,0001.37,0000.70,0000.37
2022-05-30 15:03:00,,0813.1,5.01,0.00,25.5,24.3,00.0,34.5,27.4,12.1,0000.0,0001.36,0000.70,0000.37
2022-05-30 15:04:00,,0813.1,4.98,0.00,25.6,24.3,00.0,34.5,27.4,12.3,0000.0,0001.31,0000.68,0000.37
2022-05-30 15:05:00,,0813.1,5.00,0.00,25.5,24.3,00.0,34.5,27.4,12.5,0000.0,0001.26,0000.65,0000.36
2022-05-30 15:06:00,,0813.1,5.01,0.00,25.5,24.3,00.0,34.5,27.5,11.9,0000.0,0001.15,0000.63,0000.36
2022-05-30 15:07:00,,0813.0,5.01,0.00,25.5,24.3,00.0,34.5,27.4,12.2,0000.0,0001.17,0000.65,0000.36
2022-05-30 15:08:00,,0813.0,5.00,0.00,25.5,24.3,00.0,34.5,27.4,11.6,0000.0,0001.13,0000.61,0000.35
2022-05-30 15:09:00,,0813.1,5.00,0.00,25.5,24.3,00.0,34.5,27.4,12.1,0000.0,0001.20,0000.59,0000.35
2022-05-30 15:10:00,,0812.9,5.00,0.00,25.5,24.3,00.0,34.5,27.4,11.6,0000.0,0001.30,0000.60,0000.35
2022-05-30 15:11:00,,0813.0,4.99,0.00,25.5,24.3,00.0,34.5,27.4,11.7,0000.0,0001.39,0000.64,0000.36
2022-05-30 15:12:00,,0812.9,5.01,0.00,25.5,24.3,00.0,34.5,27.4,11.8,0000.0,0001.50,0000.65,0000.35
2022-05-30 15:13:00,,0812.8,5.01,0.00,25.5,24.2,00.0,34.5,27.4,11.9,0000.0,0001.46,0000.62,0000.34
2022-05-30 15:14:00,,0812.9,5.00,0.00,25.5,24.2,00.0,34.5,27.4,12.0,0000.0,0002.63,0000.64,0000.34
2022-05-30 15:15:00,,0812.8,4.99,0.00,25.5,24.2,00.0,34.5,27.4,12.0,0000.0,0003.35,0000.67,0000.34
2022-05-30 15:16:00,,0812.8,4.99,0.00,25.5,24.2,00.0,34.5,27.4,11.8,0000.0,0003.58,0000.68,0000.36
2022-05-30 15:17:00,,0812.9,5.01,0.00,25.5,24.2,00.0,34.5,27.4,11.4,0000.0,0003.92,0000.73,0000.37
2022-05-30 15:18:00,,0812.8,5.00,0.00,25.5,24.2,00.0,34.5,27.4,11.6,0000.0,0004.17,0000.76,0000.36
2022-05-30 15:19:00,,0813.0,5.00,0.00,25.5,24.2,00.0,34.4,27.4,11.5,0000.0,0004.26,0000.81,0000.36
2022-05-30 15:20:00,,0813.0,5.01,0.00,25.5,24.2,00.0,34.4,27.3,11.8,0000.0,0004.21,0000.82,0000.37
2022-05-30 15:21:00,,0812.9,5.00,0.00,25.5,24.2,00.0,34.4,27.4,12.0,0000.0,0004.13,0000.83,0000.38
2022-05-30 15:22:00,,0812.8,4.99,0.00,25.5,24.2,00.0,34.4,27.4,12.4,0000.0,0004.15,0000.85,0000.38
2022-05-30 15:23:00,,0812.9,5.01,0.00,25.4,24.2,00.0,34.4,27.3,11.4,0000.0,0004.07,0000.84,0000.38
2022-05-30 15:24:00,,0812.9,5.01,0.00,25.4,24.2,00.0,34.4,27.3,12.1,0000.0,0004.06,0000.84,0000.39
2022-05-30 15:25:00,,0812.9,4.99,0.00,25.4,24.2,00.0,34.4,27.3,13.1,0000.0,0002.92,0000.83,0000.39
2022-05-30 15:26:00,,0812.9,4.99,0.00,25.4,24.2,00.0,34.4,27.3,12.7,0000.0,0002.76,0000.83,0000.40
2022-05-30 15:27:00,,0813.0,4.99,0.00,25.4,24.1,00.0,34.4,27.3,12.1,0000.0,0002.62,0000.83,0000.40
2022-05-30 15:28:00,,0812.9,5.01,0.00,25.4,24.1,00.0,34.4,27.3,11.0,0000.0,0002.25,0000.79,0000.40
2022-05-30 15:29:00,,0812.9,4.99,0.00,25.4,24.1,00.0,34.4,27.3,11.7,0000.0,0002.02,0000.74,0000.40
2022-05-30 15:30:00,,0812.8,5.01,0.00,25.4,24.1,00.0,34.4,27.3,12.7,0000.0,0001.87,0000.70,0000.40
2022-05-30 15:31:00,,0812.8,4.99,0.00,25.4,24.1,00.0,34.4,27.3,12.6,0000.0,0001.83,0000.70,0000.41
2022-05-30 15:32:00,,0812.8,5.00,0.00,25.4,24.1,00.0,34.4,27.3,12.3,0000.0,0001.80,0000.67,0000.40
2022-05-30 15:33:00,,0812.8,5.00,0.00,25.4,24.1,00.0,34.4,27.3,12.2,0000.0,0001.74,0000.65,0000.41
2022-05-30 15:34:00,,0812.8,5.02,0.00,25.4,24.1,00.0,34.4,27.3,12.4,0000.0,0001.74,0000.66,0000.42
2022-05-30 15:35:00,,0812.7,5.00,0.00,25.4,24.1,00.0,34.4,27.3,12.5,0000.0,0001.78,0000.66,0000.42
2022-05-30 15:36:00,,0812.8,5.01,0.00,25.4,24.1,00.0,34.4,27.3,12.5,0000.0,0002.06,0000.67,0000.41
2022-05-30 15:37:00,,0812.8,4.99,0.00,25.4,24.1,00.0,34.4,27.3,12.0,0000.0,0001.87,0000.70,0000.41
2022-05-30 15:38:00,,0812.8,4.99,0.00,25.4,24.1,00.0,34.3,27.3,11.5,0000.0,0002.35,0000.72,0000.40
2022-05-30 15:39:00,,0812.8,5.01,0.00,25.3,24.1,00.0,34.3,27.2,11.0,0000.0,0002.43,0000.76,0000.40
2022-05-30 15:40:00,,0812.8,4.99,0.00,25.3,24.1,00.0,34.3,27.2,11.3,0000.0,0002.43,0000.77,0000.41
2022-05-30 15:41:00,,0812.8,5.02,0.00,25.3,24.1,00.0,34.3,27.2,12.0,0000.0,0002.46,0000.80,0000.41
2022-05-30 15:42:00,,0812.8,5.01,0.00,25.3,24.0,00.0,34.3,27.2,12.0,0000.0,0002.58,0000.81,0000.41
2022-05-30 15:43:00,,0812.8,4.99,0.00,25.3,24.0,00.0,34.3,27.2,12.6,0000.0,0002.60,0000.82,0000.40
2022-05-30 15:44:00,,0812.8,5.00,0.00,25.3,24.0,00.0,34.3,27.2,12.6,0000.0,0002.53,0000.79,0000.39
2022-05-30 15:45:00,,0812.8,5.00,0.00,25.3,24.0,00.0,34.3,27.2,12.3,0000.0,0002.49,0000.77,0000.39
2022-05-30 15:46:00,,0812.8,5.00,0.00,25.3,24.0,00.0,34.3,27.2,11.7,0000.0,0002.40,0000.75,0000.38
2022-05-30 15:47:00,,0812.7,5.00,0.00,25.3,24.0,00.0,34.3,27.2,13.1,0000.0,0002.17,0000.75,0000.38
2022-05-30 15:48:00,,0812.7,4.99,0.00,25.3,24.0,00.0,34.3,27.2,12.1,0000.0,0002.84,0000.75,0000.39
2022-05-30 15:49:00,,0812.7,5.00,0.00,25.3,24.0,00.0,34.3,27.2,12.3,0000.0,0002.28,0000.74,0000.39
2022-05-30 15:50:00,,0812.6,5.00,0.00,25.3,24.0,00.0,34.3,27.2,12.2,0000.0,0002.22,0000.71,0000.39
2022-05-30 15:51:00,,0812.6,5.00,0.00,25.3,24.0,00.0,34.3,27.2,12.6,0000.0,0002.22,0000.69,0000.39
2022-05-30 15:52:00,,0812.6,5.01,0.00,25.3,24.0,00.0,34.3,27.2,12.4,0000.0,0002.30,0000.68,0000.39
2022-05-30 15:53:00,,0812.6,4.99,0.00,25.3,24.0,00.0,34.3,27.2,11.8,0000.0,0003.34,0000.69,0000.40
2022-05-30 15:54:00,,0812.6,5.01,0.00,25.3,24.0,00.0,34.3,27.2,12.0,0000.0,0003.60,0000.67,0000.40
2022-05-30 15:55:00,,0812.6,5.00,0.00,25.3,24.0,00.0,34.3,27.2,12.4,0000.0,0003.68,0000.71,0000.41
2022-05-30 15:56:00,,0812.7,4.99,0.00,25.3,24.0,00.0,34.3,27.2,12.2,0000.0,0003.73,0000.71,0000.41
2022-05-30 15:57:00,,0812.8,5.01,0.00,25.3,24.0,00.0,34.3,27.2,12.5,0000.0,0003.79,0000.74,0000.41
2022-05-30 15:58:00,,0812.8,5.01,0.00,25.3,24.0,00.0,34.2,27.2,13.1,0000.0,0003.71,0000.71,0000.41
2022-05-30 15:59:00,,0812.8,4.98,0.00,25.3,24.0,00.0,34.2,27.2,13.7,0000.0,0002.99,0000.69,0000.41
